星链-3352 (STARLINK-3352 )

导读

STARLINK-3352是美国太空探索技术公司(SpaceX)星链星座中的一颗卫星,于2022年1月19日发射升空,属于星链互联网卫星集群的组成部分,旨在为全球提供低延迟、高速率的宽带互联网服务,该星持续在轨运行,服务全球多地的卫星互联网接入。

基本信息
目录编号:
51147
目录名称:
STARLINK-3352
国际标识:
2022-005AV
轨道中心:
EARTH
卫星名称:
星链-3352
卫星全名:
星链-3352 (STARLINK-3352 )
卫星状态:
在轨 (已飞行1696 天)
发射日期:
2022-01-19 UTC
国别 :
美国 (US)
星等 :
--
该卫星已列入 空间交会检测服务 Space Conjunction Data Service (SCDS) ,当前飞行风险评估等级: 无高风险
轨道信息
数据来源 国际轨道数据 AOE轨道数据
星历时间 2026-09-11T10:19:25+0800
15小时前
查看轨道信息
2026-09-09T23:00:00+0800
2天前
查看轨道信息
半长轴 6833.418km 6833.72km
偏心率 0.000411 0.0003714
轨道倾角 53.186° 53.188°
近地点辐角 112.366° 111.271°
升交点赤经 154.918° 161.821°
平近点角 247.778° 21.276°
近地点 452.472km 453.044km
远地点 458.09km 458.122km
周期 93.695分钟 93.701分钟
每日圈数 15.369007 15.367989
详细信息
固有亮度:
5
最大亮度:
2.5
卫星平台:
Starlink v1.5
覆盖范围:
全球
运营商:
太空探索技术公司
运营商所在国:
美国
制造商(研发单位):
太空探索技术公司
制造商所在国:
美国
使用方式:
暂无
卫星简介
星链(Starlink)计划是由太空探索技术公司(SpaceX)提出的一个巨型低轨卫星互联网星座项目,计划在2019年至2024年间在太空搭建由约1.2万颗卫星组成的“星链”网络,其中1584颗将部署在地球上空550千米处的近地轨道,并从2020年开始工作。该卫星仍在工作。
2D轨道图
3D轨道图
轨道高度分析图
轨道倾角分析图
轨道综合分析图
查看轨道综合分析图
交会数据列表
事件ID 空间交会对象 最接近时刻(TCA) 交会距离 交会风险概率(CRP) 交会风险指数(CRI) 操作
CDM_260911-215105-114706-960922
2026-09-11T
21:51:37+0000
1.038 km
极远距离
2.070296E-5 中风险 0.61
与全量物体交会距离演化趋势
与全量物体交会风险概率演化趋势